www.pogodaiklimat.ru

Погода и климат >> Архив погоды >> Австралия >> Новый Южный Уэльс >> Брокен-Хилл аэропорт


ПОГОДА в Брокен-Хилл аэропорту

  • Прогноз погоды в Брокен-Хилл аэропорту
  • Монитор погоды в Брокен-Хилл аэропорту

АРХИВ ПОГОДЫ в Брокен-Хилл аэропорту

Время (UTC), дата Ветер
(напр.,м/с)
 
Видим.   Явления Облачность Т
(С)
Тd
(С)
f
(%)
Тe
(С)
Тes
(С)
Комфортность P
(гПа)
Po
(гПа)
Тmin
(С)
Tmax
(С)
R
(мм)
R24
(мм)
S
(см)
10 18.06 Ю 4 н/о н/о +9.1 -0.8 50 +7 +7 1024.8 990.9
11 18.06 Ю 4 н/о 5/5 1500 м
[]
+9.4 +0.6 54 +7 +7 1025.2 991.3
12 18.06 ЮЗ 2 н/о н/о +7.3 +0.3 61 +6 +6 1025.5 991.6
13 18.06 ЮЗ 2 н/о н/о +6.2 +0.3 66 +4 +4 1025.7 991.8
14 18.06 ЮЗ 2 н/о н/о +5.5 +0.3 69 +4 +4 1025.5 991.6 +15.1
15 18.06 ЮЗ 2 н/о н/о +4.9 +0.3 72 +3 +3 1025.7 991.8
16 18.06 ЮЗ 2 н/о н/о +4.1 +0.4 77 +1 +1 1025.6 991.7
17 18.06 ЮЗ 2 н/о н/о +3.6 +0.1 78 +1 +1 1025.6 991.7
18 18.06 ЮЗ 2 н/о н/о +3.1 +0.3 82 +1 +1 1025.8 991.9
19 18.06 ЮЗ 2 н/о н/о +1.9 -0.2 86 -1 -1 1025.7 991.8
20 18.06 ЮЗ 2 н/о н/о +2.0 +0.4 89 -1 -1 1026.4 992.4
21 18.06 ЮЗ 1 н/о н/о +0.9 -0.4 91 0 0 1026.8 992.8
22 18.06 штиль 0 н/о н/о +1.7 +0.5 92 +1 +1 1027.0 993.0
23 18.06 ЮЗ 1 н/о н/о +3.4 +1.3 86 +3 +3 1027.5 993.5
00 19.06 ЮВ 3 н/о н/о +8.0 +2.0 66 +6 +6 1028.2 994.2
01 19.06 Ю 3 н/о н/о +9.4 +1.6 58 +8 +8 1028.4 994.4
02 19.06 ЮВ 3 н/о н/о +10.5 +0.5 50 +9 +9 1027.8 993.8 +0.8
03 19.06 Ю 3 н/о н/о +11.1 -0.1 46 +10 +10 1027.1 993.1
04 19.06 Ю 3 н/о н/о +11.6 -0.5 43 +11 +11 1026.2 992.2
05 19.06 ЮЗ 3 н/о 1/1 1500 м
[]
+12.1 -1.4 39 +11 +11 1025.8 991.9
06 19.06 Ю 3 н/о н/о +11.7 -2.5 37 +10 +10 1025.7 991.8
07 19.06 Ю 4 н/о н/о +11.1 -2.7 38 +9 +9 1026.0 992.0
08 19.06 Ю 3 н/о н/о +8.8 -3.7 41 +7 +7 1026.1 992.1
09 19.06 Ю 3 н/о н/о +6.7 -4.1 46 +4 +4 1026.4 992.4
10 19.06 Ю 2 н/о н/о +5.7 -4.2 49 +4 +4 1026.8 992.8
11 19.06 штиль 0 н/о н/о +5.0 -3.5 54 +5 +5 1026.7 992.7
12 19.06 штиль 0 н/о н/о +4.9 -3.4 55 +4 +4 1026.7 992.7
13 19.06 ЮВ 2 н/о н/о +2.8 -6.1 52 +1 +1 1026.6 992.6
14 19.06 ЮВ 1 н/о 5/5 1500 м
[]
+5.1 -2.9 56 +6 +6 1026.7 992.7 +12.5
15 19.06 В 1 н/о н/о +5.1 -2.9 56 +6 +6 1026.4 992.4
16 19.06 СВ 3 н/о н/о +5.6 -3.0 54 +3 +3 1026.1 992.1
17 19.06 СВ 4 н/о 1/1 1500 м
[]
+4.4 -2.9 59 +1 +1 1026.1 992.1
18 19.06 С 4 н/о н/о +4.4 -3.1 58 +1 +1 1026.0 992.0
19 19.06 СВ 4 н/о н/о +1.1 -3.7 70 -4 -4 1025.6 991.7
20 19.06 СВ 3 н/о 1/1 1500 м
[]
+2.6 -2.9 67 -1 -1 1026.0 992.0
21 19.06 С 2 н/о н/о +1.5 -3.6 69 -2 -2 1026.6 992.6
22 19.06 СВ 2 н/о н/о +1.5 -3.7 68 -1 -1 1027.0 993.0
23 19.06 штиль 0 н/о н/о +4.6 -2.0 62 +4 +4 1027.3 993.3
00 20.06 З 3 н/о н/о +9.7 -2.3 43 +8 +8 1027.7 993.7
01 20.06 З 4 н/о н/о +11.0 -3.1 37 +9 +9 1027.9 993.9
02 20.06 ЮЗ 4 н/о н/о +11.0 -3.1 37 +9 +9 1027.3 993.3 +0.6
03 20.06 З 4 н/о н/о +11.5 -3.8 34 +10 +10 1026.4 992.4
04 20.06 ЮЗ 4 н/о н/о +12.4 -3.4 33 +11 +11 1025.5 991.6
05 20.06 ЮЗ 4 н/о н/о +12.1 -3.7 33 +11 +11 1025.2 991.3
06 20.06 Ю 4 н/о н/о +12.2 -4.0 32 +11 +11 1025.3 991.4
07 20.06 Ю 3 н/о н/о +12.0 -4.2 32 +11 +11 1025.6 991.7
08 20.06 Ю 3 н/о н/о +9.4 -4.5 37 +8 +8 1026.2 992.2
09 20.06 ЮВ 2 н/о н/о +7.1 -4.9 42 +6 +6 1026.8 992.8
10 20.06 штиль 0 н/о н/о +7.0 -4.4 44 +7 +7 1027.2 993.2
11 20.06 ЮВ 2 н/о н/о +6.5 -4.3 46 +5 +5 1027.6 993.6
12 20.06 В 4 н/о н/о +5.4 -3.9 51 +2 +2 1027.7 993.7
13 20.06 СВ 4 н/о н/о +6.2 -3.7 49 +3 +3 1028.0 994.0
14 20.06 СВ 3 н/о н/о +5.3 -3.7 52 +2 +2 1028.0 994.0 +13.0
15 20.06 СВ 2 н/о н/о +4.0 -4.0 56 +2 +2 1027.8 993.8
16 20.06 СВ 2 н/о н/о +3.4 -4.3 57 +2 +2 1027.8 993.8
17 20.06 СВ 2 н/о н/о +3.0 -4.0 60 +1 +1 1027.9 993.9
18 20.06 СВ 2 н/о н/о +2.5 -4.2 61 0 0 1028.0 994.0
19 20.06 В 2 н/о н/о +3.2 -3.6 61 +1 +1 1028.1 994.1
20 20.06 В 2 н/о н/о +2.3 -3.8 64 0 0 1028.5 994.5
21 20.06 штиль 0 н/о н/о +3.0 -3.1 64 +2 +2 1029.0 994.9
22 20.06 штиль 0 н/о н/о +1.2 -3.8 69 0 0 1029.6 995.5
23 20.06 штиль 0 н/о н/о +6.6 -3.1 50 +6 +6 1030.2 996.1
00 21.06 ЮВ 4 н/о н/о +9.6 -4.7 36 +8 +8 1030.6 996.5
01 21.06 ЮВ 4 н/о н/о +10.4 -5.2 33 +9 +9 1030.9 996.8
02 21.06 ЮВ 4 н/о н/о +11.2 -4.9 32 +9 +9 1030.6 996.5 0.0
03 21.06 ЮВ 5 н/о н/о +11.2 -4.9 32 +9 +9 1029.9 995.8
04 21.06 Ю 4 н/о н/о +11.5 -5.0 31 +10 +10 1029.2 995.1
05 21.06 Ю 5 н/о н/о +12.1 -4.1 32 +10 +10 1029.0 994.9
06 21.06 ЮВ 5 н/о н/о +12.0 -4.2 32 +10 +10 1029.3 995.2
07 21.06 ЮВ 5 н/о н/о +11.3 -3.6 35 +9 +9 1029.5 995.4
08 21.06 ЮВ 3 н/о н/о +9.2 -3.7 40 +7 +7 1029.7 995.6
09 21.06 ЮВ 3 н/о н/о +6.7 -4.4 45 +4 +4 1029.8 995.7
10 21.06 ЮВ 3 н/о н/о +6.0 -4.4 47 +3 +3 1030.2 996.1
11 21.06 ЮВ 3 н/о н/о +5.2 -3.8 52 +2 +2 1030.2 996.1
12 21.06 ЮВ 4 н/о н/о +5.5 -3.6 52 +2 +2 1030.3 996.2
13 21.06 ЮВ 5 н/о н/о +4.3 -3.4 57 0 0 1030.2 996.1
14 21.06 ЮВ 4 н/о н/о +4.5 -2.6 60 +1 +1 1030.1 996.0 +12.7
15 21.06 ЮВ 5 н/о н/о +5.1 -1.6 62 +1 +1 1029.6 995.5
16 21.06 ЮВ 4 н/о н/о +4.8 -1.4 64 +1 +1 1029.5 995.4
17 21.06 ЮВ 3 н/о н/о +3.7 -1.4 69 0 0 1029.5 995.4
18 21.06 ЮВ 1 н/о н/о +3.9 -0.7 72 +3 +3 1029.3 995.2
19 21.06 ЮВ 1 н/о н/о +3.1 -0.4 78 +2 +2 1029.2 995.1
20 21.06 ЮВ 3 н/о н/о +2.7 -0.4 80 -1 -1 1029.5 995.4
21 21.06 ЮВ 2 н/о н/о +2.0 -0.4 84 -1 -1 1029.7 995.6
22 21.06 штиль 0 н/о н/о +2.4 +0.1 85 +1 +1 1030.3 996.2
23 21.06 штиль 0 н/о н/о +4.2 +0.5 77 +3 +3 1030.7 996.6
00 22.06 ЮВ 3 н/о н/о +7.6 +2.1 68 +5 +5 1031.3 997.2
01 22.06 ЮВ 4 н/о н/о +9.6 +3.1 64 +7 +7 1031.1 997.0
02 22.06 ЮВ 4 н/о 1/1 600 м
[]
+10.2 +2.6 59 +8 +8 1030.7 996.6 +1.7
03 22.06 ЮВ 6 н/о н/о +11.0 +1.0 50 +8 +8 1029.7 995.6
04 22.06 ЮВ 6 н/о н/о +11.4 +0.5 47 +9 +9 1028.4 994.4
05 22.06 Ю 5 н/о н/о +11.4 -0.4 44 +9 +9 1027.9 993.9
06 22.06 Ю 6 н/о н/о +11.6 -0.2 44 +9 +9 1027.9 993.9
07 22.06 Ю 7 н/о н/о +10.9 -0.2 46 +8 +8 1027.8 993.8
08 22.06 Ю 4 н/о н/о +9.2 -0.7 50 +7 +7 1028.1 994.1
09 22.06 ЮВ 4 н/о н/о +7.2 -1.0 56 +4 +4 1028.4 994.4
10 22.06 Ю 3 н/о н/о +5.9 -1.3 60 +3 +3 1028.6 994.6
11 22.06 Ю 3 н/о 1/1 1000 м
[]
+6.0 -0.7 62 +3 +3 1028.7 994.7
12 22.06 Ю 4 н/о н/о +5.6 -0.7 64 +2 +2 1028.7 994.7
13 22.06 Ю 5 н/о н/о +5.4 -0.6 65 +1 +1 1028.5 994.5
14 22.06 ЮВ 4 н/о н/о +5.0 -0.4 68 +1 +1 1028.5 994.5 +12.3
15 22.06 ЮВ 4 н/о н/о +4.3 -0.7 70 0 0 1028.2 994.2
16 22.06 ЮВ 4 н/о н/о +3.8 -0.6 73 -1 -1 1028.1 994.1
17 22.06 ЮВ 3 н/о 1/1 1000 м
[]
+2.6 -1.4 75 -1 -1 1028.2 994.2
18 22.06 Ю 1 н/о н/о +1.8 -1.3 80 0 0 1028.1 994.1
19 22.06 ЮЗ 2 н/о н/о +0.1 -2.1 85 -4 -4 1028.0 994.0
20 22.06 Ю 2 н/о н/о +0.1 -1.8 87 -3 -3 1028.4 994.4
21 22.06 Ю 2 н/о н/о +0.4 -1.7 86 -3 -3 1029.0 994.9
22 22.06 Ю 2 н/о н/о +0.4 -1.8 85 -3 -3 1029.4 995.3
23 22.06 Ю 2 н/о 5/5 1000 м
[]
+3.6 +0.5 80 +1 +1 1030.1 996.0
00 23.06 ЮВ 4 н/о н/о +6.7 +1.4 69 +3 +3 1030.3 996.2
01 23.06 ЮВ 5 н/о н/о +8.4 +1.1 60 +5 +5 1030.0 995.9
02 23.06 Ю 7 н/о 5/5 600 м
[]
+9.1 0.0 53 +5 +5 1029.1 995.0 -0.8
03 23.06 Ю 7 н/о н/о +10.5 0.0 48 +7 +7 1028.3 994.3
04 23.06 Ю 8 н/о н/о +10.7 +0.2 48 +7 +7 1027.4 993.4
05 23.06 Ю 7 н/о н/о +10.9 0.0 47 +8 +8 1027.5 993.5
06 23.06 Ю 7 н/о н/о +11.0 -0.5 45 +8 +8 1027.4 993.4
07 23.06 Ю 7 н/о н/о +10.4 -0.7 46 +7 +7 1027.5 993.5
08 23.06 Ю 5 н/о н/о +9.0 -0.6 51 +6 +6 1028.0 994.0
09 23.06 ЮВ 4 н/о н/о +7.1 -1.8 53 +4 +4 1028.7 994.7
10 23.06 ЮВ 4 н/о н/о +5.8 -2.3 56 +3 +3 1029.1 995.0
11 23.06 ЮВ 4 н/о н/о +4.9 -2.4 59 +1 +1 1029.6 995.5
12 23.06 ЮВ 3 н/о н/о +4.6 -2.0 62 +1 +1 1029.4 995.3
13 23.06 В 3 н/о н/о +3.6 -2.6 64 +1 +1 1029.2 995.1
14 23.06 В 2 н/о н/о +2.8 -2.5 68 +1 +1 1029.5 995.4 +11.8
15 23.06 В 5 н/о н/о +4.8 -2.1 61 +1 +1 1029.4 995.3
16 23.06 В 4 н/о н/о +2.4 -2.5 70 -2 -2 1029.4 995.3
17 23.06 В 5 н/о н/о +3.5 -0.9 73 -1 -1 1029.3 995.2
18 23.06 В 4 н/о н/о +3.3 -0.5 76 -1 -1 1029.3 995.2
19 23.06 СВ 2 н/о н/о +4.0 -0.6 72 +1 +1 1029.9 995.8
20 23.06 СВ 1 н/о н/о +1.3 -2.3 77 -0 -0 1030.3 996.2
21 23.06 СЗ 1 н/о н/о +0.7 -1.7 84 0 0 1030.6 996.5
22 23.06 З 2 н/о н/о -0.4 -3.4 80 -3 -3 1030.9 996.8
23 23.06 штиль 0 н/о н/о +4.1 -0.5 72 +3 +3 1031.3 997.2
00 24.06 В 3 н/о н/о +9.6 +0.5 53 +8 +8 1031.3 997.2
01 24.06 В 6 н/о н/о +11.3 +0.4 47 +9 +9 1030.9 996.8
02 24.06 В 5 н/о н/о +12.4 +1.1 46 +11 +11 1030.3 996.2 -0.9
03 24.06 В 6 н/о н/о +12.6 +1.6 47 +11 +11 1029.2 995.1
04 24.06 В 5 н/о н/о +12.5 +1.8 48 +11 +11 1028.5 994.5
05 24.06 В 5 н/о н/о +12.5 +1.2 46 +11 +11 1028.2 994.2
06 24.06 В 6 н/о н/о +11.9 +0.4 45 +10 +10 1028.3 994.3
07 24.06 СВ 4 н/о н/о +11.8 -0.7 42 +10 +10 1028.7 994.7
08 24.06 СВ 2 н/о 5/0
[]
+10.5 -0.3 47 +10 +10 1029.2 995.1
09 24.06 штиль 0 н/о н/о +7.6 -2.1 50 +7 +7 1029.4 995.3
10 24.06 В 2 н/о н/о +6.9 -2.0 53 +6 +6 1029.9 995.8
11 24.06 В 3 н/о н/о +7.4 -0.8 56 +5 +5 1030.1 996.0
12 24.06 СВ 2 н/о н/о +8.0 +0.3 58 +7 +7 1030.8 996.7
13 24.06 СВ 4 н/о н/о +8.4 +0.4 57 +6 +6 1030.2 996.1
14 24.06 СВ 4 н/о 6/0
[]
+7.7 0.0 58 +5 +5 1030.0 995.9 +13.5
15 24.06 СВ 3 н/о н/о +7.3 -0.2 59 +5 +5 1029.8 995.7
16 24.06 СВ 3 н/о н/о +7.9 +0.2 58 +6 +6 1029.9 995.8
17 24.06 СВ 3 н/о 10/0
[]
+8.0 +0.7 60 +6 +6 1029.6 995.5
18 24.06 З 2 н/о н/о +6.9 +0.4 63 +6 +6 1029.8 995.7
19 24.06 штиль 0 н/о н/о +6.3 -0.2 63 +6 +6 1029.8 995.7
20 24.06 штиль 0 н/о 8/0
[]
+6.7 -0.1 62 +6 +6 1029.6 995.5
21 24.06 З 2 н/о н/о +7.6 +1.0 63 +6 +6 1030.2 996.1
22 24.06 В 2 н/о н/о +8.3 +1.9 64 +7 +7 1030.8 996.7
23 24.06 В 3 н/о 3/0
[]
+9.6 +1.5 57 +8 +8 1031.0 996.9
00 25.06 В 4 н/о н/о +12.1 +2.8 53 +11 +11 1031.3 997.2
01 25.06 СВ 4 н/о н/о +14.8 +3.9 48 +14 +14 1031.1 997.0
02 25.06 В 4 н/о н/о +15.7 +3.8 45 +15 +15 1030.8 996.7 +5.8
03 25.06 В 3 н/о н/о +16.7 +3.4 41 +17 +17 1030.0 995.9
04 25.06 ЮВ 3 н/о н/о +17.1 +2.3 37 +17 +17 1029.6 995.5
05 25.06 В 4 н/о н/о +17.3 +2.5 37 +17 +17 1029.2 995.1
06 25.06 В 4 н/о н/о +17.1 +2.7 38 +17 +17 1029.4 995.3
07 25.06 В 4 н/о н/о +16.5 +2.9 40 +16 +16 1029.8 995.7
08 25.06 В 4 н/о н/о +14.0 +2.6 46 +13 +13 1030.0 995.9
09 25.06 В 3 н/о н/о +11.0 +1.5 52 +9 +9 1030.5 996.4
10 25.06 В 4 н/о н/о +10.6 +2.2 56 +9 +9 1030.9 996.8

 

Местоположение метеостанции Брокен-Хилл аэропорт (Новый Южный Уэльс, Австралия): широта -32.00 долгота 141.46 высота над уровнем моря 282 м.

В архиве по умолчанию представлена погода в Брокен-Хилл аэропорту за последнюю неделю. Архивные данные за месяц целиком и за предыдущие месяцы, начиная с января 2011 года, Вы можете получить, выбрав интересующий диапазон дат из раскрывающегося списка и нажав кнопку "Ввод!".


*Определитесь, кто Вы:
робот инопланетянин человек

Внимание! Время в таблицах - всемирное. Для получения местного времени необходимо прибавить поправку, которая равна 10 ч.

Смотрите также архив погоды в соседних городах и на ближайших метеорологических станциях:

Погода в Фоулерс Гэп (Новый Южный Уэльс, Австралия) (105 км)
Погода в Юнте (Южная Австралия, Австралия) (189 км)
Погода в Уилкании (Новый Южный Уэльс, Австралия) (189 км)
Погода в Уафт Клифс (Новый Южный Уэльс, Австралия) (199 км)
Погода в Милдьюре (Новый Южный Уэльс, Австралия) (255 км)
Погода в Ренмарке (Южная Австралия, Австралия) (255 км)
Погода в Локстоне (Южная Австралия, Австралия) (282 км)
Погода в Айванхо (Новый Южный Уэльс, Австралия) (286 км)
Погода в Тибообере (Новый Южный Уэльс, Австралия) (289 км)
Погода в Ли-Крике (Южная Австралия, Австралия) (328 км)

Пояснения к столбцам:

Ветер - указаны скорость ветра в м/с - средняя за 10 мин, порывы в срок и между сроками (в фигурных скобках) и направление, откуда дует ветер: С - северный, СВ - северо-восточный, В - восточный, ЮВ - юго-восточный, Ю - южный, ЮЗ - юго-западный, З - западный, СЗ - северо-западный.
Видимость - горизонтальная дальность видимости в метрах или километрах. При видимости от 1 до 10 км при отсутствии осадков обычно наблюдается дымка, при ухудшении видимости до 1 км и менее - туман. В сухую погоду видимость может ухудшаться дымом, пылью или мглою.
Явления - указаны атмосферные явления, наблюдавшиеся в срок или в последний час перед сроком; фигурными скобками обозначены явления, наблюдавшиеся между сроками (за 1-3 часа до срока); квадратными скобками обозначены град или гололедные отложения с указанием их диаметра в мм.
Облачность - указаны через наклонную черту общая и нижняя облачность в баллах и высота нижней границы облаков в метрах; квадратными скобками обозначены формы облаков: Ci - перистые, Cs - перисто-слоистые, Cc - перисто-кучевые, Ac - высококучевые, As - высокослоистые, Sc - слоисто-кучевые, Ns - слоисто-дождевые, Cu - кучевые, Cb - кучево-дождевые. Подробнее классификацию облаков см. в Атласе облаков (PDF).
T - Температура воздуха - температура, измеренная на высоте 2 м над землей.
Td - Температура точки росы - температура, при понижении до которой содержащийся в воздухе водяной пар достигнет насыщения.
f - Относительная влажность воздуха - влажноcть воздуха, измеренная на высоте 2 м над землей.
Te - Эффективная температура - температура, которую ощущает одетый по сезону человек в тени. Характеристика душности погоды. При расчете учитывается влияние влажности воздуха и скорости ветра на теплоощущения человека.
Tes - Эффективная температура на солнце - температура, которую ощущает человек, с поправкой на солнечный нагрев. Характеристика знойности погоды. Зависит от высоты солнца над горизонтом, облачности и скорости ветра. Ночью, в пасмурную погоду, а также при ветре 12 м/с и более поправка равна нулю.
P - Атмосферное давление - приведенное к уровню моря атмосферное давление.
Po - Атмосферное давление - измеренное на уровне метеостанции атмосферное давление.
Tmin - Минимальная температура - минимум температуры воздуха на высоте 2 м над землей.
Tmax - Максимальная температура - максимум температуры воздуха на высоте 2 м над землей.
R - Количество осадков - Количество выпавших осадков за период времени, мм. При наведении курсора мыши на число - период времени, за который выпало указанное количество осадков.
R24 - Количество осадков - Количество выпавших осадков за 24 часа, мм.
S - Снежный покров - Высота снежного покрова, см. При наведении курсора мыши на число - состояние снежного покрова и степень покрытия местности в баллах.